Temp
45 40 37 41 43 43 44 39 36 39 45 44 42 43 47 51 52 53 57 53 52 53 59 60 59 59 58 58 57 56 55 55 55 53 51 50 47 46 46 48 49 49 48 48
39 36 45 48 45 43 41 38 36 40 44 43 42 41 47 50 51 53 55 57 54 54 55 56 56 55 56 56 58 57 57 55 56 56 53 50 49 45 46 47 47 48 48 48
38 38 47 44 43 39 39 37 35 35 38 41 40 38 42 49 51 54 55 58 58 55 53 55 55 54 56 56 58 58 57 56 57 55 51 48 47 46 45 45 45 46 48 48
41 48 41 40 40 42 34 42 43 39 35 30 40 29 39 45 46 51 54 56 57 56 57 57 57 55 56 57 59 59 57 57 56 54 53 52 51 48 45 44 44 45 47 46
37 40 40 35 40 44 38 43 39 38 36 34 34 31 36 42 42 46 52 54 57 58 58 57 57 58 58 59 58 59 58 57 54 55 54 53 51 46 45 44 44 44 45 46
40 42 41 41 42 42 42 37 35 38 34 27 34 32 35 37 45 48 52 55 57 59 60 59 59 60 58 59 57 57 56 55 55 55 54 53 49 47 46 44 44 43 43 43
34 35 38 43 36 40 39 31 24 22 23 23 34 31 36 44 52 52 52 54 57 59 58 57 56 57 57 55 54 55 55 53 54 54 54 52 52 51 48 46 45 43 41 41
28 25 36 40 39 33 34 35 22 16 19 22 30 28 35 48 54 49 54 54 56 58 59 57 56 57 57 55 55 56 55 52 54 54 53 52 51 51 50 48 46 45 43 43
26 27 37 41 43 42 33 30 39 28 27 24 28 31 40 43 44 50 54 53 54 57 59 57 57 57 56 55 55 56 55 53 53 53 51 50 50 50 48 46 46 45 42 44
35 26 35 38 42 42 39 40 29 30 20 21 25 25 33 37 46 50 47 50 54 56 57 58 56 56 57 56 56 57 56 53 53 52 51 50 48 48 47 46 44 42 42 41
34 31 28 35 33 32 34 32 35 33 29 23 23 26 36 42 42 43 46 51 54 56 56 57 56 56 57 57 57 56 54 53 51 51 50 47 45 45 46 45 43 42 41 40
31 32 27 28 36 41 39 35 36 28 27 29 22 27 39 35 40 42 44 47 52 58 56 57 56 56 55 55 55 54 52 50 50 50 48 45 44 44 44 42 41 41 40 40
28 26 24 24 31 36 35 38 39 38 32 28 25 28 39 36 41 43 43 43 47 54 55 56 55 54 53 53 53 52 51 50 48 47 46 44 44 43 42 41 40 40 39 38
32 28 25 21 26 30 30 34 35 34 29 29 30 30 40 42 44 45 43 43 43 47 51 52 52 52 53 52 51 50 49 48 47 46 45 43 43 43 41 40 39 38 37 36
27 20 24 24 29 31 30 34 35 31 34 30 35 33 42 43 45 45 42 44 44 46 47 48 49 48 48 48 49 47 47 46 46 44 43 42 41 40 40 38 37 37 36 36
29 17 23 20 31 31 28 32 35 36 36 36 37 35 41 42 43 42 42 43 43 44 46 46 46 46 45 45 44 44 45 45 45 43 40 40 40 39 38 37 36 35 34 34
21 20 20 17 29 28 22 29 32 34 38 37 31 40 42 42 44 42 43 43 43 45 44 44 44 44 44 43 44 43 44 45 43 41 40 40 39 37 36 35 35 34 33 32
21 21 21 16 23 13 31 40 40 38 41 41 41 42 43 47 48 45 47 45 43 45 44 44 44 44 44 44 44 43 43 42 40 39 38 38 37 35 35 35 33 31 31 31
26 22 15 13 19 24 31 36 33 34 36 44 42 45 42 39 39 38 44 46 45 44 43 43 44 43 43 42 43 42 41 40 39 38 37 37 36 35 34 32 31 31 30 30
26 26 18 17 15 17 29 35 36 38 30 41 45 44 39 39 33 36 42 44 43 43 43 41 42 42 41 42 44 42 40 40 37 37 36 36 35 34 33 32 30 30 29 30
17 18 14 16 14 22 33 35 38 26 31 34 38 41 38 40 45 41 42 41 42 41 40 41 41 40 42 44 43 40 39 36 36 36 35 35 34 33 32 31 30 29 28 28
19 14 14 18 15 12 33 36 34 33 34 36 36 39 37 35 38 38 38 37 37 38 40 41 40 40 42 42 41 37 34 35 36 35 34 33 33 35 33 31 29 29 27 26
18 24 21 21 23 31 31 29 33 31 32 35 34 36 37 35 35 36 35 36 37 37 39 39 38 37 39 40 39 34 34 35 35 34 32 31 32 32 32 31 29 27 26 25
24 27 23 24 26 23 28 31 33 32 33 35 37 36 36 34 35 35 35 35 35 37 37 38 37 35 34 36 36 35 35 35 33 31 30 30 29 28 28 30 30 27 25 25
23 20 18 20 27 26 29 30 31 32 34 35 36 36 35 34 34 34 34 35 35 36 36 36 35 33 32 34 33 34 34 33 31 30 30 29 29 27 27 28 27 27 26 27
20 18 16 17 23 23 24 30 32 31 31 33 33 32 34 34 33 34 34 35 35 34 35 33 33 32 32 32 31 32 33 33 31 29 29 28 27 27 27 26 26 35 34 35
MSLP
1011.26 1011.19 1009.72 1010.42 1010.64 1010.85 1011.18 1011.37 1011.16 1011.04 1010.87 1010.92 1010.28 1009.70 1008.92 1008.99 1009.05 1008.70 1009.14 1009.92 1010.15 1010.61 1011.28 1012.01 1012.74 1013.54 1014.11 1014.72 1015.45 1016.08 1016.78 1017.63 1018.38 1019.35 1020.19 1021.29 1022.11 1022.62 1022.89 1022.90 1023.15 1023.53 1024.06 1024.52
1010.77 1008.71 1009.53 1009.97 1010.43 1010.76 1010.98 1010.91 1010.96 1011.08 1010.80 1010.96 1009.99 1009.01 1008.42 1008.11 1007.86 1007.74 1007.74 1008.45 1009.39 1010.02 1010.92 1011.41 1012.37 1013.06 1013.68 1014.28 1014.91 1015.69 1016.42 1017.20 1018.04 1018.88 1019.68 1020.51 1021.68 1022.68 1022.89 1023.14 1023.48 1023.79 1024.29 1024.67
1008.81 1008.50 1009.22 1009.49 1009.75 1010.23 1010.38 1010.41 1010.97 1011.33 1011.09 1010.91 1010.11 1008.36 1007.51 1006.56 1007.03 1006.89 1006.75 1007.16 1007.94 1008.86 1010.01 1010.15 1011.65 1012.46 1013.02 1013.81 1014.40 1015.00 1015.79 1016.65 1017.65 1018.59 1019.67 1020.76 1021.84 1022.70 1023.45 1023.68 1023.87 1024.16 1024.39 1024.84
1008.74 1008.48 1008.94 1009.22 1008.93 1009.90 1009.96 1010.46 1010.69 1011.00 1011.28 1010.64 1010.10 1007.68 1006.27 1005.86 1005.77 1005.97 1005.78 1006.09 1006.46 1007.40 1008.33 1009.01 1009.61 1011.27 1012.13 1012.65 1013.60 1014.45 1015.30 1016.16 1017.26 1018.14 1019.13 1019.95 1020.94 1022.16 1023.04 1023.48 1023.90 1024.34 1024.61 1025.06
1007.44 1008.02 1008.63 1008.67 1008.47 1009.62 1009.39 1010.25 1010.56 1010.82 1010.65 1010.67 1009.62 1008.84 1005.23 1005.00 1004.86 1003.96 1003.41 1004.00 1004.63 1005.68 1006.41 1007.77 1008.61 1009.43 1010.58 1011.75 1012.39 1013.60 1014.77 1015.81 1016.86 1017.73 1018.45 1019.38 1020.58 1021.60 1022.56 1023.51 1024.18 1024.65 1025.04 1025.33
1007.81 1008.02 1008.29 1007.95 1008.93 1009.38 1009.68 1010.43 1010.52 1010.54 1010.48 1009.13 1008.54 1008.70 1003.77 1003.43 1001.79 1002.34 1002.53 1002.90 1003.44 1004.18 1005.35 1006.58 1007.66 1008.66 1010.04 1011.58 1012.46 1013.07 1014.15 1015.45 1016.51 1017.37 1018.29 1018.80 1019.98 1021.29 1022.60 1023.67 1024.37 1024.95 1025.36 1025.77
1008.15 1007.95 1007.97 1007.85 1008.71 1009.08 1009.69 1010.27 1010.55 1010.41 1009.69 1007.27 1006.94 1007.03 1002.97 1001.22 1000.74 1000.76 1001.29 1001.42 1002.22 1003.28 1004.22 1005.49 1006.66 1007.66 1009.04 1010.44 1011.72 1012.91 1013.85 1015.14 1016.09 1017.06 1017.87 1018.82 1019.56 1020.41 1021.62 1022.94 1023.93 1024.82 1025.44 1025.99
1007.72 1007.67 1007.31 1007.18 1006.92 1007.86 1008.74 1009.31 1009.29 1009.15 1008.37 1007.14 1006.41 1004.09 1001.38 1000.53 1000.34 1000.46 1000.32 1000.62 1001.26 1001.80 1002.57 1003.76 1005.33 1006.64 1008.09 1009.31 1011.10 1011.70 1013.04 1014.51 1015.53 1016.47 1017.59 1018.72 1019.42 1020.33 1021.34 1022.25 1023.57 1024.45 1025.09 1025.71
1007.49 1006.87 1005.89 1005.73 1006.12 1006.94 1007.78 1007.96 1007.88 1008.48 1008.04 1007.44 1005.68 1003.39 1001.33 1000.27 999.71 999.52 999.77 1000.04 1000.21 1000.61 1001.33 1002.31 1003.34 1004.92 1007.03 1008.60 1009.63 1011.19 1012.30 1013.78 1015.09 1016.18 1017.33 1018.66 1019.39 1020.27 1021.22 1022.16 1023.28 1024.39 1025.09 1025.70
1007.29 1006.93 1005.77 1005.17 1005.72 1005.99 1005.83 1006.74 1008.00 1008.32 1007.61 1006.60 1004.90 1003.51 1001.48 1000.11 999.73 999.42 999.45 999.50 999.47 999.77 1000.62 1001.84 1003.23 1003.82 1005.30 1006.94 1009.02 1010.56 1011.78 1012.70 1014.31 1015.84 1016.88 1018.23 1019.32 1020.18 1021.14 1022.02 1023.20 1024.24 1025.11 1025.73
1007.75 1007.15 1006.18 1005.47 1005.20 1005.22 1005.91 1005.84 1006.26 1006.76 1006.48 1005.40 1004.58 1002.64 1000.85 1000.08 999.95 999.91 999.67 999.21 998.79 998.53 999.49 1000.72 1002.15 1003.39 1004.64 1006.41 1008.09 1009.48 1011.02 1012.65 1014.16 1015.39 1016.77 1018.15 1019.22 1020.23 1021.26 1022.14 1023.27 1024.30 1025.14 1025.77
1009.50 1007.04 1006.24 1005.17 1004.44 1004.14 1004.05 1004.38 1005.24 1005.39 1005.11 1004.82 1004.30 1001.74 1000.79 1000.55 1000.00 999.71 999.71 999.14 998.21 998.63 999.09 999.77 1001.13 1002.61 1004.67 1005.48 1007.30 1008.04 1010.15 1011.86 1013.42 1014.98 1016.63 1018.06 1019.27 1020.35 1021.46 1022.41 1023.44 1024.35 1025.21 1025.89
1010.63 1008.35 1006.63 1005.98 1005.33 1004.61 1004.32 1004.24 1004.53 1004.71 1004.76 1003.59 1003.56 1001.84 1000.83 1000.52 1000.27 1000.06 999.55 999.14 998.66 998.22 999.24 1000.56 1001.91 1002.67 1003.69 1005.18 1007.12 1008.38 1010.03 1010.89 1013.19 1014.62 1016.51 1018.06 1019.37 1020.70 1021.75 1022.76 1023.66 1024.54 1025.34 1026.08
1011.66 1009.71 1008.62 1007.71 1006.40 1005.76 1004.30 1003.89 1004.32 1004.12 1003.66 1002.99 1002.54 1001.46 1000.53 1000.80 1000.65 1000.47 1000.37 999.89 999.61 999.09 999.48 1000.33 1002.01 1003.05 1004.46 1005.84 1006.90 1007.87 1010.27 1011.59 1012.74 1014.63 1016.61 1018.10 1019.40 1020.79 1022.10 1023.10 1023.95 1024.79 1025.53 1026.20
1012.72 1011.72 1010.15 1008.57 1007.11 1005.60 1004.73 1003.63 1002.92 1002.94 1002.17 1002.47 1001.45 1001.18 1001.24 1000.77 1000.26 1000.69 1001.43 1001.10 1001.05 1000.99 1001.50 1002.10 1002.61 1003.88 1005.48 1006.70 1007.78 1009.04 1010.79 1011.62 1013.15 1015.08 1016.80 1018.40 1019.70 1021.13 1022.47 1023.52 1024.35 1025.19 1025.74 1026.34
1013.92 1012.32 1010.79 1008.52 1006.82 1005.56 1004.38 1003.14 1002.37 1001.87 1001.83 1001.55 1001.01 1000.81 1000.82 1000.70 1000.90 1001.61 1002.29 1002.16 1002.10 1002.58 1002.38 1003.91 1004.89 1005.04 1005.92 1007.01 1008.24 1009.69 1010.78 1011.80 1013.73 1015.59 1017.03 1018.72 1020.14 1021.62 1022.83 1023.87 1024.69 1025.44 1026.11 1026.65
1013.97 1012.89 1011.68 1009.31 1007.28 1005.52 1003.75 1002.03 1001.61 1001.30 1000.94 1000.50 1000.67 999.85 1000.09 1000.33 1000.71 1001.55 1001.59 1002.12 1001.97 1002.75 1003.38 1003.93 1005.53 1006.37 1007.04 1007.68 1008.40 1009.87 1011.12 1012.41 1014.31 1015.79 1017.40 1019.07 1020.56 1022.03 1023.33 1024.24 1025.14 1025.86 1026.43 1026.97
1013.43 1013.26 1012.50 1010.03 1007.97 1005.83 1002.50 1000.97 1000.19 999.92 999.50 999.92 999.75 999.18 999.27 999.57 999.94 1000.31 1000.17 1001.33 1002.10 1003.00 1003.71 1004.88 1005.86 1007.20 1007.86 1008.50 1009.38 1010.51 1011.99 1013.11 1015.03 1016.38 1018.24 1019.78 1021.09 1022.34 1023.45 1024.70 1025.50 1026.11 1026.61 1027.19
1012.13 1012.94 1012.06 1010.36 1008.14 1005.42 1002.52 1000.81 1000.30 999.75 998.95 998.76 998.94 998.65 999.06 999.83 1000.29 1000.88 1001.20 1001.79 1002.82 1003.81 1004.62 1005.54 1006.33 1006.97 1008.40 1009.37 1010.43 1011.05 1012.74 1014.19 1015.61 1017.36 1018.82 1020.31 1021.60 1022.71 1023.95 1024.98 1025.77 1026.34 1026.89 1027.38
1011.40 1012.24 1012.10 1010.29 1008.49 1005.46 1002.23 1001.29 1000.51 1000.03 999.90 999.49 998.66 998.46 999.13 1000.26 1001.20 1001.25 1001.65 1002.64 1003.94 1004.89 1005.43 1006.14 1007.02 1008.11 1009.44 1010.49 1011.02 1011.62 1013.69 1014.91 1016.66 1017.95 1019.35 1020.79 1022.02 1023.25 1024.22 1025.05 1025.85 1026.49 1027.03 1027.69
1011.73 1012.07 1011.29 1010.60 1008.75 1005.78 1002.62 1001.71 1000.99 1001.21 1001.53 1000.63 1000.02 999.36 999.68 1000.19 999.90 1000.41 1001.83 1003.15 1003.96 1004.76 1005.83 1007.33 1008.19 1008.84 1009.94 1010.85 1011.43 1012.90 1014.49 1016.05 1017.47 1018.88 1019.92 1021.36 1022.64 1023.42 1024.42 1025.45 1026.20 1026.83 1027.34 1027.86
1011.08 1011.13 1011.04 1010.82 1008.93 1006.83 1003.28 1002.35 1002.77 1002.40 1001.37 1001.08 1000.62 1000.40 1000.04 1000.51 1000.69 1001.67 1002.96 1003.94 1004.77 1006.04 1006.47 1007.72 1008.56 1009.68 1010.34 1011.25 1012.19 1014.00 1015.75 1017.52 1018.41 1019.60 1020.80 1021.96 1023.09 1024.06 1024.83 1025.78 1026.65 1026.99 1027.45 1027.94
1010.91 1010.72 1010.16 1009.34 1007.65 1005.05 1004.71 1004.35 1003.67 1003.35 1002.58 1001.41 1001.14 1000.91 1000.98 1001.72 1002.55 1003.13 1004.11 1005.07 1005.89 1006.71 1008.04 1009.08 1009.50 1010.79 1011.71 1012.44 1012.99 1015.02 1017.43 1018.23 1019.38 1020.42 1021.66 1022.58 1023.74 1024.81 1025.23 1026.01 1026.76 1027.33 1027.69 1028.05
1011.04 1010.91 1010.55 1009.95 1007.08 1006.88 1006.12 1005.48 1004.83 1004.07 1003.14 1001.96 1001.73 1001.90 1001.94 1002.74 1003.76 1004.73 1005.51 1006.70 1007.37 1008.39 1009.21 1010.27 1010.77 1011.89 1013.24 1014.06 1015.28 1016.39 1018.06 1019.07 1020.28 1021.33 1022.41 1023.48 1024.45 1025.27 1025.74 1026.38 1026.91 1027.38 1027.56 1027.79
1012.04 1011.72 1010.99 1009.92 1008.67 1007.77 1007.02 1006.51 1005.93 1005.17 1003.58 1003.50 1003.41 1003.58 1003.89 1003.91 1005.14 1005.89 1007.08 1007.80 1008.46 1009.68 1010.95 1011.67 1012.32 1013.51 1014.85 1015.76 1016.73 1017.83 1019.09 1020.27 1021.40 1022.19 1023.35 1023.98 1024.87 1025.69 1026.26 1026.77 1026.87 1027.02 1027.32 1027.58
1012.80 1012.44 1012.09 1010.52 1009.68 1009.85 1008.65 1007.79 1006.95 1006.37 1004.97 1005.41 1005.06 1005.45 1006.08 1006.15 1006.41 1007.23 1008.45 1008.88 1009.04 1010.82 1012.21 1013.23 1014.22 1015.06 1016.40 1017.37 1018.34 1019.54 1020.74 1021.42 1022.08 1022.78 1023.43 1024.44 1025.45 1026.12 1026.52 1026.51 1026.96 1026.84 1026.95 1027.10
Wind_Speed
11 12 18 20 22 14 10 10 8 7 6 9 17 18 19 13 15 21 21 12 11 13 15 14 13 12 12 12 13 13 14 12 11 9 8 6 5 3 3 4 7 7 6 7
7 24 17 13 8 19 20 16 13 11 8 8 10 19 18 17 18 17 20 19 14 10 7 11 13 13 14 15 16 15 15 15 12 10 6 5 6 3 3 4 5 6 7 7
23 4 19 13 16 16 14 14 6 5 7 8 7 18 18 17 16 16 15 17 18 17 16 17 17 17 17 16 17 17 17 17 13 12 8 6 6 5 3 2 4 4 7 6
17 21 7 19 23 15 19 14 18 14 10 6 9 10 14 17 18 20 21 17 21 22 22 19 20 19 19 18 16 17 17 17 14 16 12 17 9 8 4 4 4 5 6 7
11 13 22 13 20 18 15 9 11 12 15 9 8 10 8 7 15 23 26 24 24 24 23 20 21 23 21 19 19 18 18 17 16 16 15 12 11 4 5 5 8 6 5 6
18 6 14 25 13 12 3 6 3 5 9 14 13 12 17 10 26 19 21 23 22 23 22 20 18 18 17 14 15 17 19 17 17 15 15 16 15 12 10 6 7 5 4 4
6 13 4 6 12 11 11 6 5 5 7 11 11 14 23 13 21 21 20 20 23 21 18 18 20 20 19 20 19 16 19 17 17 16 15 13 15 16 16 13 8 9 5 3
16 11 16 8 21 10 13 17 5 7 6 5 6 13 17 19 23 7 12 10 17 23 23 25 25 23 21 21 20 20 21 18 18 17 15 11 13 10 10 10 9 6 4 5
6 10 2 11 12 20 7 16 17 6 2 2 4 8 12 7 8 14 19 14 18 23 24 25 26 26 24 22 22 21 21 18 18 16 13 11 11 12 11 10 9 6 6 5
4 4 7 2 7 14 14 8 9 9 7 11 5 7 10 5 16 15 11 18 18 20 20 21 21 24 23 23 20 21 20 21 20 16 14 12 11 10 11 11 11 9 7 6
5 6 2 7 8 13 10 15 8 4 9 5 1 6 7 8 6 7 7 11 16 23 22 21 20 21 23 23 22 21 19 19 17 16 14 13 11 11 11 11 10 9 7 7
8 4 8 9 3 13 20 21 19 7 6 10 4 9 3 1 6 5 9 8 10 16 20 22 23 22 20 22 21 23 21 20 18 17 14 13 12 12 12 11 10 9 9 7
9 5 2 4 2 1 7 16 18 17 4 6 7 6 2 2 6 6 6 7 7 11 17 17 17 21 23 22 21 19 18 21 17 17 15 14 13 12 12 12 11 9 9 7
13 6 9 7 4 7 6 14 13 15 11 8 4 8 9 7 8 9 6 5 5 6 13 15 15 16 16 18 19 21 17 16 18 17 16 15 14 14 12 11 10 9 8 8
3 6 13 19 17 14 12 11 20 22 20 10 13 13 10 3 4 4 3 5 6 8 9 11 16 14 15 16 16 16 15 17 18 17 16 15 14 14 12 11 10 8 7 7
3 5 7 10 14 10 20 13 13 22 21 19 19 16 4 4 4 4 4 5 7 8 13 11 9 15 17 17 17 17 17 18 18 17 17 16 15 13 12 11 10 8 7 7
4 3 4 6 9 15 12 8 14 9 19 18 16 17 3 5 5 6 6 6 8 11 12 16 14 13 13 16 18 18 18 19 18 19 17 16 15 14 11 10 9 8 7 6
9 8 4 7 9 4 8 15 14 21 16 14 12 9 7 8 9 12 12 15 14 15 16 15 15 14 14 15 16 18 18 19 18 18 16 14 14 13 11 9 8 7 5 6
19 10 4 4 3 10 16 8 2 10 18 18 15 16 7 5 5 2 2 6 9 12 12 13 12 16 15 16 18 20 19 19 19 17 16 14 13 12 10 9 7 5 5 5
13 13 6 1 4 4 6 4 6 3 10 11 16 18 9 10 4 5 9 14 14 14 14 16 17 17 17 16 18 21 19 19 17 16 15 12 11 11 10 8 7 4 4 5
6 6 12 9 5 8 9 4 8 2 4 9 8 7 6 9 7 10 16 15 15 16 19 16 17 18 18 17 19 20 18 17 15 15 14 12 10 10 9 7 5 5 5 5
1 6 6 6 6 10 3 1 3 3 4 4 7 5 2 9 14 17 17 16 18 17 19 18 17 16 16 18 20 19 18 14 15 15 14 12 10 8 7 9 5 5 5 5
2 4 3 5 6 3 5 5 6 5 6 5 5 3 12 16 16 17 16 18 17 19 15 16 18 17 15 16 19 22 15 15 15 14 13 11 10 8 7 8 6 4 5 4
5 3 3 9 5 10 9 7 7 6 5 7 5 6 14 19 16 19 17 16 17 16 17 16 20 20 18 17 18 18 15 14 14 14 12 10 10 8 6 4 4 4 3 4
3 5 5 7 7 11 4 8 7 7 9 12 11 11 13 19 17 17 17 18 18 18 16 16 18 18 18 17 16 14 13 13 13 12 10 9 7 7 6 5 4 3 2 3
2 3 3 5 9 6 6 8 7 8 13 11 16 17 14 16 19 20 17 17 20 19 18 18 19 19 16 16 15 12 11 12 12 11 8 7 6 5 5 5 4 7 6 7
Wind_Direction
195 214 214 212 217 244 273 234 231 250 233 222 232 242 239 232 216 217 215 205 192 202 202 188 176 175 174 174 166 163 151 154 144 144 138 132 137 127 102 112 124 119 117 112
199 227 212 222 229 221 238 246 255 275 259 237 240 244 239 235 226 226 218 211 201 198 178 181 178 171 177 177 178 168 163 158 159 155 144 130 138 108 114 119 107 118 120 120
214 228 212 234 219 229 242 242 212 229 339 304 279 256 241 232 227 221 221 218 198 190 192 187 182 182 180 182 180 175 166 163 160 144 118 97 85 75 81 88 110 125 124 113
230 227 186 212 229 215 240 234 245 249 250 251 190 268 234 233 228 220 223 217 201 196 196 200 185 185 185 181 180 176 166 163 157 154 146 154 151 154 156 145 132 121 120 116
204 189 216 223 227 219 244 227 214 231 246 255 225 265 254 175 222 215 219 208 208 201 193 198 189 188 185 179 173 171 167 165 159 163 161 155 149 128 122 115 123 118 110 112
225 196 206 227 216 205 218 238 326 248 236 244 232 230 249 214 218 222 224 221 208 204 199 196 189 179 177 180 173 165 163 165 163 161 163 159 149 141 137 135 135 132 118 117
196 222 218 155 211 201 199 138 236 231 223 250 182 215 239 250 232 214 217 216 210 195 190 182 182 180 179 172 169 166 165 162 165 163 162 161 157 154 153 154 152 147 139 130
218 230 199 189 208 177 196 208 198 208 202 261 176 230 237 244 242 254 230 215 205 202 188 183 182 181 177 169 174 169 168 164 166 163 162 159 155 153 153 151 151 146 141 136
184 235 205 218 196 185 180 211 220 318 194 266 232 284 297 240 248 235 229 211 202 204 200 192 178 175 173 171 171 174 166 163 165 165 152 154 151 151 153 137 135 134 122 127
219 249 214 241 145 217 199 144 181 212 235 245 240 260 236 270 235 236 217 210 210 201 194 187 182 172 168 166 168 167 167 164 164 158 155 154 151 144 143 139 137 133 129 120
210 208 211 116 183 190 202 215 202 173 227 227 290 258 219 240 318 305 292 254 209 191 187 182 177 170 167 169 169 164 159 158 157 154 150 143 140 134 135 133 130 131 124 126
322 263 210 201 189 208 196 207 210 231 183 227 159 253 101 248 268 294 302 267 207 202 190 178 174 168 171 165 171 160 157 155 156 149 143 138 130 130 129 126 127 127 123 118
328 338 191 118 348 209 209 225 216 225 273 198 202 262 163 75 29 336 325 316 248 196 172 172 171 170 165 160 165 159 161 149 144 135 133 131 130 131 128 127 125 122 120 115
352 304 351 343 330 334 219 205 222 215 235 235 240 281 281 15 13 353 349 26 34 102 143 148 152 157 157 159 157 147 146 143 135 131 134 132 131 129 126 123 120 119 118 117
61 299 339 312 303 287 273 266 203 217 231 229 245 225 253 297 320 302 276 58 74 89 105 135 141 135 143 143 138 131 132 130 128 127 127 126 120 117 116 114 112 111 109 109
331 296 315 293 303 334 324 263 230 223 227 235 251 259 156 233 78 87 98 133 119 118 121 114 128 135 140 140 136 134 133 126 128 126 121 120 116 118 118 117 115 110 109 106
288 280 326 275 320 329 303 240 230 222 220 217 232 237 191 222 172 159 170 205 154 147 143 139 143 142 139 141 137 134 130 125 123 122 120 121 120 118 117 115 114 114 112 111
216 237 264 275 296 255 250 309 237 213 227 221 243 236 200 242 209 186 187 182 168 153 146 145 142 143 137 132 125 122 122 118 120 117 116 116 118 117 116 117 116 114 111 112
205 194 251 247 303 300 306 314 333 185 245 226 224 242 211 113 74 348 144 142 147 142 136 133 130 125 124 126 128 120 117 118 116 117 116 117 119 119 120 118 118 111 109 99
182 193 208 279 258 272 250 353 329 167 281 4 219 232 188 142 180 217 149 121 122 126 129 130 125 121 122 128 127 115 118 116 115 119 116 113 117 120 119 119 118 103 106 110
146 185 213 233 267 278 267 320 324 82 246 317 340 300 173 196 234 135 129 128 129 132 125 123 127 129 129 129 121 113 116 110 114 111 109 109 110 111 114 109 103 109 109 106
224 161 188 212 224 259 319 132 200 292 276 263 305 298 165 109 114 121 121 122 121 122 123 126 121 119 120 121 114 108 102 111 109 108 106 106 108 110 112 113 112 104 108 100
247 340 305 208 226 291 354 341 325 287 268 307 307 4 127 119 120 122 124 124 122 119 117 120 114 108 105 111 113 109 114 113 111 107 106 102 99 104 108 114 116 101 104 107
289 59 275 340 7 341 330 317 326 310 304 9 37 106 119 118 119 116 114 116 112 113 114 116 112 105 97 96 98 101 111 110 110 108 105 105 108 101 92 94 108 120 105 83
301 352 321 270 312 308 328 353 339 343 50 59 61 80 103 112 107 110 113 114 108 104 105 105 103 99 98 98 95 101 105 109 108 108 110 105 101 107 110 104 113 104 125 161
346 294 278 271 330 272 290 325 352 38 61 68 86 83 82 96 106 106 103 104 103 101 101 92 90 93 94 94 93 95 107 116 117 114 106 109 113 111 109 103 80 81 88 73